www.pogodaiklimat.ru

Погода и климат >> Архив погоды >> Япония >> Цусима


ПОГОДА в Цусиме

  • Прогноз погоды в Цусиме
  • Монитор погоды в Цусиме

АРХИВ ПОГОДЫ в Цусиме

Время (UTC), дата Ветер
(напр.,м/с)
 
Видим.   Явления Облачность Т
(С)
Тd
(С)
f
(%)
Тe
(С)
Тes
(С)
Комфортность P
(гПа)
Po
(гПа)
Тmin
(С)
Tmax
(С)
R
(мм)
R24
(мм)
S
(см)
04 12.06 СВ 5 20 км н/о +22.0 +14.7 63 +25 +25 комфорт 1011.0 1010.5
05 12.06 СВ 5 20 км н/о +21.8 +14.9 65 +25 +25 комфорт 1010.7 1010.2
06 12.06 СВ 5 20 км н/о +21.5 +14.9 66 +25 +25 комфорт 1010.7 1010.2
07 12.06 СВ 4 20 км н/о +21.3 +15.6 70 +25 +25 комфорт 1010.5 1010.0
08 12.06 СВ 4 20 км н/о +20.6 +15.6 73 +24 +24 комфорт 1010.5 1010.0
09 12.06 СВ 3 20 км н/о +19.9 +15.8 77 +23 +23 комфорт 1010.3 1009.8
10 12.06 С 2 20 км н/о +19.5 +16.2 81 +22 +22 комфорт 1010.8 1010.3
11 12.06 С 3 20 км н/о +19.2 +16.3 83 +21 +21 комфорт 1011.0 1010.5
12 12.06 СВ 2 20 км н/о +19.4 +16.1 81 +22 +22 комфорт 1011.4 1010.9 +23.2
13 12.06 С 2 20 км н/о +19.2 +15.7 80 +21 +21 комфорт 1011.6 1011.1
14 12.06 С 1 20 км н/о +18.9 +15.8 82 +21 +21 комфорт 1011.5 1011.0
15 12.06 С 2 20 км н/о +19.3 +15.6 79 +22 +22 комфорт 1011.4 1010.9
16 12.06 С 2 20 км н/о +18.6 +15.3 81 +20 +20 1011.2 1010.7
17 12.06 С 3 20 км н/о +18.7 +15.0 79 +20 +20 1011.0 1010.5
18 12.06 С 2 20 км н/о +18.6 +15.3 81 +20 +20 1010.7 1010.2
19 12.06 С 2 20 км н/о +18.6 +15.3 81 +20 +20 1010.7 1010.2
20 12.06 С 2 20 км н/о +18.5 +15.2 81 +20 +20 1011.0 1010.5
21 12.06 С 2 20 км н/о +18.7 +15.0 79 +20 +20 1011.4 1010.9
22 12.06 С 2 20 км н/о +18.9 +15.0 78 +21 +21 комфорт 1011.8 1011.3
23 12.06 С 3 20 км н/о +19.6 +15.1 75 +22 +22 комфорт 1012.1 1011.6
00 13.06 С 3 20 км н/о +20.3 +15.1 72 +23 +23 комфорт 1012.1 1011.6 +18.4
01 13.06 СВ 2 20 км н/о +20.9 +15.5 71 +25 +25 комфорт 1012.0 1011.5
02 13.06 СВ 2 20 км н/о +21.3 +15.8 71 +25 +25 комфорт 1011.7 1011.2
03 13.06 СВ 2 20 км н/о +21.8 +16.8 73 +26 +26 душно 1011.2 1010.7
04 13.06 СВ 2 20 км н/о +21.9 +17.1 74 +26 +26 душно 1010.9 1010.4
05 13.06 СВ 2 20 км н/о +22.6 +17.5 73 +28 +28 душно 1010.6 1010.1
06 13.06 В 2 20 км н/о +22.0 +17.6 76 +27 +27 душно 1010.0 1009.5
07 13.06 В 3 20 км н/о +22.6 +18.2 76 +28 +28 душно 1009.4 1008.9
08 13.06 В 3 20 км н/о +22.2 +18.0 77 +27 +27 душно 1009.0 1008.5
09 13.06 В 2 20 км н/о +21.7 +18.3 81 +26 +26 душно 1009.0 1008.5
10 13.06 СВ 2 20 км н/о +20.7 +18.3 86 +25 +25 комфорт 1009.5 1009.0
11 13.06 З 1 20 км н/о +20.2 +18.2 88 +25 +25 комфорт 1009.8 1009.3
12 13.06 ЮЗ 1 19 км н/о +19.2 +17.9 92 +23 +23 комфорт 1010.3 1009.8 +23.1
13 13.06 С 1 18 км н/о +18.9 +17.8 93 +22 +22 комфорт 1010.6 1010.1
14 13.06 С 1 20 км н/о +18.8 +17.7 93 +21 +21 комфорт 1010.3 1009.8
15 13.06 В 1 18 км н/о +18.4 +17.4 94 +21 +21 комфорт 1009.6 1009.1
16 13.06 Ю 1 15 км н/о +18.3 +17.3 94 +20 +20 1009.2 1008.7
17 13.06 СЗ 2 15 км н/о +18.8 +17.1 90 +21 +21 комфорт 1008.5 1008.0
18 13.06 ЮВ 1 16 км н/о +18.8 +17.7 93 +22 +22 комфорт 1007.9 1007.4
19 13.06 В 1 20 км н/о +18.5 +16.7 89 +21 +21 комфорт 1007.4 1006.9
20 13.06 СЗ 1 20 км н/о +18.6 +16.2 86 +21 +21 комфорт 1006.9 1006.4
21 13.06 СЗ 1 20 км н/о +18.7 +16.7 88 +21 +21 комфорт 1007.4 1006.9
22 13.06 С 2 20 км н/о +20.1 +17.7 86 +24 +24 комфорт 1006.6 1006.1
23 13.06 С 3 18 км н/о +21.9 +19.3 85 +27 +27 душно 1006.0 1005.5
00 14.06 С 1 20 км н/о +22.3 +19.7 85 +28 +28 душно 1006.3 1005.8 +18.2
02 14.06 СВ 3 19 км н/о +22.9 +19.7 82 +29 +29 очень
душно
1005.4 1004.9
03 14.06 СВ 2 20 км н/о +23.0 +19.6 81 +30 +30 очень
душно
1005.0 1004.5
04 14.06 СВ 2 20 км н/о +23.3 +19.7 80 +30 +30 очень
душно
1004.0 1003.5
05 14.06 В 2 20 км н/о +22.5 +19.3 82 +28 +28 душно 1003.6 1003.1
06 14.06 СВ 3 19 км слаб. дождь н/о +22.9 +20.1 84 +30 +30 очень
душно
1003.2 1002.7 0.0
07 14.06 С 2 19 км в посл. час дождь н/о +22.7 +18.9 79 +29 +29 очень
душно
1002.9 1002.4
08 14.06 С 3 19 км слаб. дождь н/о +22.1 +18.3 79 +27 +27 душно 1002.5 1002.0
09 14.06 С 3 11 км слаб. дождь н/о +20.9 +18.7 87 +26 +26 душно 1002.2 1001.7
10 14.06 С 4 2200 м сильн. дождь н/о +19.8 +18.8 94 +23 +23 комфорт 1002.1 1001.6
11 14.06 С 5 10 км слаб. дождь н/о +19.4 +18.8 96 +22 +22 комфорт 1002.0 1001.5
12 14.06 С 6 3100 м дождь н/о +19.3 +19.0 98 +21 +21 комфорт 1002.1 1001.6 +23.9 19
13 14.06 С 4 11 км слаб. дождь н/о +19.0 +17.9 93 +21 +21 комфорт 1002.2 1001.7
14 14.06 С 4 10 км слаб. дождь н/о +18.9 +17.8 93 +20 +20 1001.5 1001.0
15 14.06 С 4 5000 м слаб. дождь н/о +18.1 +17.0 93 +18 +18 1001.0 1000.5
16 14.06 С 4 5000 м дождь н/о +18.0 +17.4 96 +18 +18 999.6 999.1
17 14.06 С 5 4800 м дождь н/о +18.4 +17.8 96 +19 +19 998.9 998.4
18 14.06 С 4 3200 м дождь н/о +18.2 +17.7 97 +19 +19 998.7 998.2 25
19 14.06 С 5 5000 м дождь н/о +17.9 +17.1 95 +18 +18 998.4 997.9
20 14.06 С 6 9000 м слаб. дождь н/о +17.7 +16.4 92 +17 +17 998.5 998.0
21 14.06 С 6 8000 м слаб. дождь н/о +17.5 +16.2 92 +17 +17 998.7 998.2
22 14.06 С 6 11 км слаб. дождь н/о +18.2 +17.1 93 +18 +18 998.5 998.0
23 14.06 С 5 19 км в посл. час дождь н/о +19.1 +17.3 89 +20 +20 998.5 998.0
00 15.06 С 6 20 км {дождь} н/о +19.6 +16.5 82 +21 +21 комфорт 998.5 998.0 +17.2 32
01 15.06 СЗ 6 20 км н/о +20.0 +16.8 82 +22 +22 комфорт 998.6 998.1
02 15.06 С 6 20 км н/о +21.6 +16.4 72 +25 +25 комфорт 998.5 998.0
03 15.06 СЗ 6 20 км н/о +22.6 +16.2 67 +27 +27 душно 998.5 998.0
04 15.06 С 5 20 км н/о +23.6 +15.9 62 +27 +27 жарко 998.4 997.9
05 15.06 С 6 20 км н/о +24.2 +15.7 59 +27 +27 жарко 998.1 997.6
06 15.06 С 3 20 км н/о +24.7 +15.6 57 +28 +28 душно 997.7 997.2
07 15.06 В 2 20 км н/о +22.7 +17.0 70 +27 +27 душно 997.7 997.2
08 15.06 ЮВ 3 20 км н/о +23.4 +18.9 76 +30 +30 очень
душно
998.1 997.6
09 15.06 ЮВ 2 16 км н/о +21.5 +18.1 81 +26 +26 душно 998.2 997.7
10 15.06 СЗ 2 14 км н/о +20.9 +18.1 84 +26 +26 душно 998.5 998.0
11 15.06 С 2 11 км н/о +20.0 +18.1 89 +24 +24 комфорт 998.9 998.4
12 15.06 С 2 9000 м дымка н/о +19.9 +18.6 92 +24 +24 комфорт 999.3 998.8 +25.8
13 15.06 С 2 11 км н/о +20.1 +18.6 91 +24 +24 комфорт 999.8 999.3
14 15.06 СЗ 2 9000 м дымка н/о +19.5 +18.3 93 +22 +22 комфорт 1000.3 999.8
15 15.06 СЗ 2 15 км н/о +20.3 +17.9 86 +24 +24 комфорт 1001.0 1000.5
16 15.06 С 1 20 км н/о +20.1 +16.6 80 +24 +24 комфорт 1001.3 1000.8
17 15.06 С 2 20 км н/о +19.0 +16.8 87 +21 +21 комфорт 1001.6 1001.1
18 15.06 С 1 10 км н/о +17.5 +16.9 96 +19 +19 1001.8 1001.3
19 15.06 С 3 14 км н/о +17.4 +16.1 92 +18 +18 1002.5 1002.0
20 15.06 Ю 2 14 км н/о +17.6 +16.5 93 +18 +18 1003.5 1003.0
21 15.06 С 2 20 км н/о +18.4 +16.2 87 +20 +20 1004.2 1003.7
22 15.06 С 1 20 км н/о +19.5 +16.7 84 +23 +23 комфорт 1004.9 1004.4
23 15.06 ЮВ 1 20 км н/о +20.8 +17.4 81 +26 +26 душно 1005.5 1005.0
00 16.06 ЮВ 1 20 км н/о +22.4 +17.3 73 +27 +27 душно 1006.2 1005.7 +17.0
01 16.06 ЮВ 1 20 км н/о +23.7 +17.7 69 +28 +28 душно 1006.7 1006.2
02 16.06 ЮВ 3 20 км н/о +22.2 +16.7 71 +27 +27 душно 1007.4 1006.9
03 16.06 Ю 1 20 км н/о +21.6 +17.4 77 +26 +26 душно 1007.9 1007.4
04 16.06 С 2 20 км слаб. дождь н/о +21.4 +16.4 73 +25 +25 комфорт 1008.3 1007.8
05 16.06 СВ 2 20 км в посл. час дождь н/о +21.2 +17.0 77 +25 +25 комфорт 1008.7 1008.2
06 16.06 С 2 20 км {дождь} н/о +21.8 +16.8 73 +26 +26 душно 1009.1 1008.6 0.0
07 16.06 СВ 2 20 км н/о +21.7 +16.4 72 +26 +26 душно 1009.1 1008.6
08 16.06 Ю 1 20 км н/о +21.5 +16.9 75 +25 +25 комфорт 1009.3 1008.8
09 16.06 С 2 20 км н/о +21.0 +17.0 78 +25 +25 комфорт 1009.8 1009.3
10 16.06 С 2 20 км н/о +20.4 +16.5 78 +24 +24 комфорт 1010.5 1010.0
11 16.06 СЗ 1 20 км н/о +20.2 +16.1 77 +24 +24 комфорт 1011.1 1010.6
12 16.06 С 1 20 км н/о +19.6 +15.9 79 +23 +23 комфорт 1011.8 1011.3 +25.0 0.0
13 16.06 СЗ 2 20 км н/о +19.4 +16.5 83 +22 +22 комфорт 1012.2 1011.7
14 16.06 Ю 1 20 км н/о +18.3 +16.8 91 +20 +20 1012.3 1011.8
15 16.06 С 1 20 км н/о +17.8 +16.7 93 +19 +19 1012.5 1012.0
16 16.06 С 1 20 км н/о +17.1 +16.5 96 +19 +19 1012.2 1011.7
17 16.06 С 1 20 км н/о +17.0 +16.2 95 +18 +18 1012.3 1011.8
18 16.06 ЮЗ 1 20 км н/о +16.5 +16.2 98 +18 +18 1012.0 1011.5
19 16.06 СЗ 1 20 км н/о +16.5 +15.9 96 +18 +18 1012.4 1011.9
20 16.06 СЗ 1 20 км н/о +16.5 +16.0 97 +17 +17 1012.6 1012.1
21 16.06 С 1 20 км н/о +16.9 +16.3 96 +18 +18 1013.0 1012.5
22 16.06 штиль 0 20 км н/о +17.9 +17.1 95 +18 +18 1013.6 1013.1
23 16.06 В 2 20 км н/о +20.3 +17.7 85 +24 +24 комфорт 1013.6 1013.1
00 17.06 ЮВ 2 20 км н/о +22.4 +18.2 77 +28 +28 душно 1013.7 1013.2 +16.3
01 17.06 ЮВ 3 20 км н/о +21.9 +17.7 77 +26 +26 душно 1013.8 1013.3
02 17.06 ЮВ 4 20 км н/о +23.8 +18.9 74 +29 +29 душно 1013.8 1013.3
03 17.06 ЮВ 4 20 км н/о +23.9 +18.8 73 +29 +29 душно 1013.7 1013.2
04 17.06 ЮВ 4 20 км н/о +25.2 +18.2 65 +30 +30 душно 1013.0 1012.5
05 17.06 ЮВ 4 20 км н/о +25.6 +18.3 64 +30 +30 душно 1012.6 1012.1
06 17.06 Ю 1 20 км н/о +25.8 +16.9 58 +30 +30 душно 1012.4 1011.9
07 17.06 ЮВ 3 20 км н/о +23.7 +16.5 64 +27 +27 жарко 1012.1 1011.6
08 17.06 Ю 2 20 км н/о +24.8 +17.3 63 +29 +29 душно 1011.8 1011.3
09 17.06 З 2 20 км н/о +23.2 +15.8 63 +28 +28 душно 1012.1 1011.6
10 17.06 ЮЗ 2 20 км н/о +21.7 +16.7 73 +26 +26 душно 1012.3 1011.8
11 17.06 Ю 3 20 км н/о +21.1 +16.5 75 +25 +25 комфорт 1012.3 1011.8
12 17.06 В 1 20 км н/о +21.0 +15.6 71 +25 +25 комфорт 1012.8 1012.3 +27.2
13 17.06 ЮЗ 4 20 км н/о +21.4 +15.7 70 +25 +25 комфорт 1013.5 1013.0
14 17.06 ЮЗ 5 20 км н/о +21.3 +15.6 70 +25 +25 комфорт 1013.2 1012.7
15 17.06 С 2 20 км н/о +19.7 +15.4 76 +23 +23 комфорт 1012.9 1012.4
16 17.06 Ю 3 20 км н/о +21.4 +16.2 72 +25 +25 комфорт 1012.7 1012.2
18 17.06 ЮЗ 4 20 км н/о +21.3 +15.2 68 +24 +24 комфорт 1011.9 1011.4
19 17.06 ЮЗ 2 20 км н/о +21.5 +14.7 65 +25 +25 комфорт 1012.2 1011.7
20 17.06 ЮЗ 3 20 км н/о +21.4 +16.2 72 +25 +25 комфорт 1012.1 1011.6
21 17.06 Ю 2 20 км н/о +21.0 +15.3 70 +25 +25 комфорт 1012.0 1011.5
22 17.06 Ю 3 20 км н/о +21.5 +14.4 64 +24 +24 комфорт 1011.9 1011.4
23 17.06 Ю 1 20 км н/о +21.8 +15.2 66 +25 +25 комфорт 1012.2 1011.7
00 18.06 ЮЗ 3 20 км н/о +21.9 +16.6 72 +26 +26 душно 1012.2 1011.7 +19.5
01 18.06 СЗ 2 20 км н/о +22.6 +13.1 55 +26 +26 жарко 1012.1 1011.6
02 18.06 Ю 3 20 км н/о +23.3 +17.1 68 +28 +28 душно 1012.2 1011.7
03 18.06 З 3 20 км н/о +23.1 +18.4 75 +29 +29 очень
душно
1011.8 1011.3
04 18.06 Ю 6 20 км н/о +24.1 +18.3 70 +29 +29 душно 1011.3 1010.8
05 18.06 Ю 4 15 км н/о +24.1 +19.0 73 +29 +29 душно 1011.1 1010.6
06 18.06 Ю 4 14 км в посл. час дождь н/о +22.7 +18.7 78 +28 +28 душно 1010.6 1010.1 0.0
07 18.06 ЮЗ 3 12 км н/о +25.0 +19.2 70 +30 +30 душно 1010.1 1009.6
08 18.06 ЮЗ 3 17 км н/о +23.6 +18.3 72 +28 +28 душно 1009.8 1009.3
09 18.06 Ю 3 15 км н/о +23.4 +18.5 74 +30 +30 очень
душно
1009.6 1009.1
10 18.06 ЮЗ 4 13 км н/о +22.6 +17.7 74 +28 +28 душно 1009.7 1009.2
11 18.06 Ю 5 12 км н/о +21.6 +18.2 81 +26 +26 душно 1009.6 1009.1
12 18.06 СЗ 2 13 км н/о +21.4 +17.8 80 +26 +26 душно 1010.3 1009.8 +25.1 0.0
13 18.06 Ю 3 12 км н/о +20.3 +17.9 86 +24 +24 комфорт 1010.9 1010.4
14 18.06 ЮЗ 2 15 км н/о +21.0 +18.0 83 +26 +26 душно 1010.4 1009.9
15 18.06 З 2 19 км н/о +21.4 +17.4 78 +25 +25 комфорт 1010.0 1009.5
16 18.06 СЗ 2 17 км н/о +20.5 +17.3 82 +25 +25 комфорт 1009.3 1008.8
17 18.06 Ю 2 12 км н/о +20.6 +18.6 88 +25 +25 комфорт 1008.8 1008.3
18 18.06 Ю 2 13 км н/о +20.5 +18.3 87 +25 +25 комфорт 1008.5 1008.0
19 18.06 С 2 11 км н/о +19.7 +18.0 90 +23 +23 комфорт 1008.3 1007.8
20 18.06 С 2 9000 м дымка н/о +19.2 +18.0 93 +22 +22 комфорт 1008.2 1007.7
21 18.06 С 1 8000 м дымка н/о +19.1 +18.1 94 +22 +22 комфорт 1007.7 1007.2
22 18.06 Ю 1 9000 м дымка н/о +20.2 +18.5 90 +25 +25 комфорт 1007.6 1007.1
23 18.06 ЮВ 2 10 км н/о +21.4 +18.6 84 +26 +26 душно 1007.7 1007.2
00 19.06 ЮВ 2 14 км н/о +23.4 +19.4 78 +30 +30 очень
душно
1007.4 1006.9 +18.8
01 19.06 ЮВ 2 11 км н/о +24.1 +19.6 76 +29 +29 душно 1007.2 1006.7
02 19.06 ЮВ 2 11 км н/о +24.8 +19.9 74 +30 +30 душно 1007.0 1006.5
03 19.06 ЮВ 2 12 км н/о +24.5 +20.2 77 +30 +30 очень
душно
1006.4 1005.9
04 19.06 ЮВ 1 13 км н/о +23.8 +19.1 75 +29 +29 душно 1006.2 1005.7

 

Местоположение метеостанции Цусима (Япония): широта 34.20 долгота 129.30 высота над уровнем моря 19 м.

В архиве по умолчанию представлена погода в Цусиме за последнюю неделю. Архивные данные за месяц целиком и за предыдущие месяцы, начиная с января 2011 года, Вы можете получить, выбрав интересующий диапазон дат из раскрывающегося списка и нажав кнопку "Ввод!".


*Определитесь, кто Вы:
робот инопланетянин человек

Внимание! Время в таблицах - всемирное. Для получения местного времени необходимо прибавить поправку, которая равна 9 ч.

Смотрите также архив погоды в соседних городах и на ближайших метеорологических станциях:

Погода в Хирадо (Япония) (95 км)
Погода в Пусане (Корея) (103 км)
Погода в Тхонъёне (Корея) (108 км)
Погода в Фукуоке (Япония) (121 км)
Погода в Сасебо (Япония) (123 км)
Погода в Масане (Корея) (128 км)
Погода в Саге (Япония) (139 км)
Погода в Иидзуке (Япония) (142 км)
Погода в Ульсане (Корея) (150 км)
Погода в Симоносеки (Япония) (153 км)

Пояснения к столбцам:

Ветер - указаны скорость ветра в м/с - средняя за 10 мин, порывы в срок и между сроками (в фигурных скобках) и направление, откуда дует ветер: С - северный, СВ - северо-восточный, В - восточный, ЮВ - юго-восточный, Ю - южный, ЮЗ - юго-западный, З - западный, СЗ - северо-западный.
Видимость - горизонтальная дальность видимости в метрах или километрах. При видимости от 1 до 10 км при отсутствии осадков обычно наблюдается дымка, при ухудшении видимости до 1 км и менее - туман. В сухую погоду видимость может ухудшаться дымом, пылью или мглою.
Явления - указаны атмосферные явления, наблюдавшиеся в срок или в последний час перед сроком; фигурными скобками обозначены явления, наблюдавшиеся между сроками (за 1-3 часа до срока); квадратными скобками обозначены град или гололедные отложения с указанием их диаметра в мм.
Облачность - указаны через наклонную черту общая и нижняя облачность в баллах и высота нижней границы облаков в метрах; квадратными скобками обозначены формы облаков: Ci - перистые, Cs - перисто-слоистые, Cc - перисто-кучевые, Ac - высококучевые, As - высокослоистые, Sc - слоисто-кучевые, Ns - слоисто-дождевые, Cu - кучевые, Cb - кучево-дождевые. Подробнее классификацию облаков см. в Атласе облаков (PDF).
T - Температура воздуха - температура, измеренная на высоте 2 м над землей.
Td - Температура точки росы - температура, при понижении до которой содержащийся в воздухе водяной пар достигнет насыщения.
f - Относительная влажность воздуха - влажноcть воздуха, измеренная на высоте 2 м над землей.
Te - Эффективная температура - температура, которую ощущает одетый по сезону человек в тени. Характеристика душности погоды. При расчете учитывается влияние влажности воздуха и скорости ветра на теплоощущения человека.
Tes - Эффективная температура на солнце - температура, которую ощущает человек, с поправкой на солнечный нагрев. Характеристика знойности погоды. Зависит от высоты солнца над горизонтом, облачности и скорости ветра. Ночью, в пасмурную погоду, а также при ветре 12 м/с и более поправка равна нулю.
P - Атмосферное давление - приведенное к уровню моря атмосферное давление.
Po - Атмосферное давление - измеренное на уровне метеостанции атмосферное давление.
Tmin - Минимальная температура - минимум температуры воздуха на высоте 2 м над землей.
Tmax - Максимальная температура - максимум температуры воздуха на высоте 2 м над землей.
R - Количество осадков - Количество выпавших осадков за период времени, мм. При наведении курсора мыши на число - период времени, за который выпало указанное количество осадков.
R24 - Количество осадков - Количество выпавших осадков за 24 часа, мм.
S - Снежный покров - Высота снежного покрова, см. При наведении курсора мыши на число - состояние снежного покрова и степень покрытия местности в баллах.